MEA202 EGLL-OLBA

Flight info

Callsign MEA202
Flight time N/A
Altitude 41000
Route DET L6 DVR UL9 KONAN UL607 REMBA DCT SPI DCT BOMBI DCT TENLO DCT LAMSI DCT SASAL DCT SOGMO DCT BABIT DCT IRGOR DCT NISVA DCT USALI N131 RODIP DCT BELGI UT38 VESAR L620 BALMA
Aircraft A332/H-SDE3GHIJ2J3J5M1RVWXY/LB2D1

Departure

Time 2026-05-04 11:51
Airport London Heathrow Airport (EGLL)

Arrival

Time N/A
Airport Beirut Rafic Hariri International Airport (OLBA)
Time Latitude Longitude Altitude Speed Heading
2026-05-04 10:56 51.47091 -0.46428 90 ft 0 kts 235°
2026-05-04 11:29 51.47103 -0.46399 67 ft 4 kts 235°
2026-05-04 11:29 51.47119 -0.46364 92 ft 4 kts 235°
2026-05-04 11:29 51.47130 -0.46334 92 ft 4 kts 266°
2026-05-04 11:29 51.47122 -0.46299 92 ft 4 kts 317°
2026-05-04 11:31 51.47106 -0.46279 91 ft 0 kts 326°
2026-05-04 11:33 51.47110 -0.46283 90 ft 2 kts 326°
2026-05-04 11:34 51.47112 -0.46285 90 ft 1 kts 326°
2026-05-04 11:34 51.47119 -0.46293 90 ft 3 kts 326°
2026-05-04 11:35 51.47138 -0.46313 93 ft 4 kts 326°
2026-05-04 11:35 51.47166 -0.46343 93 ft 6 kts 326°
2026-05-04 11:35 51.47202 -0.46382 91 ft 7 kts 326°
2026-05-04 11:35 51.47217 -0.46398 94 ft 1 kts 326°
2026-05-04 11:36 51.47222 -0.46405 94 ft 1 kts 326°
2026-05-04 11:36 51.47226 -0.46409 94 ft 1 kts 326°
2026-05-04 11:36 51.47227 -0.46410 94 ft 0 kts 326°
2026-05-04 11:36 51.47229 -0.46412 94 ft 1 kts 326°
2026-05-04 11:37 51.47230 -0.46413 94 ft 0 kts 326°
2026-05-04 11:37 51.47230 -0.46414 94 ft 0 kts 319°
2026-05-04 11:37 51.47232 -0.46428 92 ft 3 kts 290°
2026-05-04 11:37 51.47238 -0.46485 92 ft 7 kts 274°
2026-05-04 11:38 51.47239 -0.46590 90 ft 13 kts 271°
2026-05-04 11:38 51.47209 -0.46709 93 ft 11 kts 211°
2026-05-04 11:38 51.47126 -0.46723 90 ft 13 kts 179°
2026-05-04 11:38 51.47059 -0.46766 91 ft 7 kts 234°
2026-05-04 11:39 51.47063 -0.46835 94 ft 6 kts 315°
2026-05-04 11:39 51.47134 -0.46863 90 ft 13 kts 359°
2026-05-04 11:40 51.47515 -0.46572 91 ft 12 kts 88°
2026-05-04 11:41 51.47516 -0.46434 92 ft 13 kts 89°
2026-05-04 11:41 51.47516 -0.46292 90 ft 13 kts 90°
2026-05-04 11:41 51.47517 -0.46144 91 ft 13 kts 90°
2026-05-04 11:41 51.47517 -0.45998 90 ft 13 kts 89°
2026-05-04 11:42 51.47518 -0.45825 92 ft 16 kts 94°
2026-05-04 11:42 51.47508 -0.45649 93 ft 16 kts 93°
2026-05-04 11:42 51.47508 -0.45472 93 ft 16 kts 90°
2026-05-04 11:42 51.47509 -0.45291 93 ft 16 kts 89°
2026-05-04 11:43 51.47509 -0.45111 93 ft 16 kts 88°
2026-05-04 11:43 51.47509 -0.44928 93 ft 17 kts 90°
2026-05-04 11:43 51.47510 -0.44744 93 ft 17 kts 88°
2026-05-04 11:43 51.47485 -0.44582 95 ft 14 kts 143°
2026-05-04 11:44 51.47386 -0.44559 91 ft 15 kts 179°
2026-05-04 11:44 51.47279 -0.44558 91 ft 16 kts 180°
2026-05-04 11:44 51.47165 -0.44559 91 ft 17 kts 180°
2026-05-04 11:44 51.47050 -0.44557 91 ft 18 kts 179°
2026-05-04 11:45 51.46925 -0.44555 90 ft 18 kts 180°
2026-05-04 11:45 51.46814 -0.44555 110 ft 0 kts 180°
2026-05-04 11:45 51.46808 -0.44555 90 ft 2 kts 180°
2026-05-04 11:45 51.46767 -0.44523 90 ft 13 kts 129°
2026-05-04 11:46 51.46753 -0.44388 92 ft 12 kts 90°
2026-05-04 11:46 51.46753 -0.44190 94 ft 23 kts 90°
2026-05-04 11:46 51.46770 -0.43941 93 ft 21 kts 88°
2026-05-04 11:46 51.46771 -0.43704 93 ft 21 kts 90°
2026-05-04 11:47 51.46771 -0.43533 94 ft 8 kts 96°
2026-05-04 11:47 51.46747 -0.43470 95 ft 6 kts 146°
2026-05-04 11:47 51.46677 -0.43439 93 ft 12 kts 177°
2026-05-04 11:47 51.46650 -0.43437 93 ft 0 kts 178°
2026-05-04 11:48 51.46649 -0.43437 93 ft 0 kts 178°
2026-05-04 11:48 51.46642 -0.43437 93 ft 2 kts 178°
2026-05-04 11:48 51.46628 -0.43436 94 ft 3 kts 178°
2026-05-04 11:48 51.46608 -0.43434 94 ft 3 kts 178°
2026-05-04 11:49 51.46580 -0.43433 92 ft 8 kts 178°
2026-05-04 11:49 51.46510 -0.43478 93 ft 12 kts 236°
2026-05-04 11:49 51.46496 -0.43579 90 ft 0 kts 267°
2026-05-04 11:50 51.46495 -0.43604 91 ft 11 kts 268°
2026-05-04 11:50 51.46493 -0.44040 89 ft 69 kts 270°
2026-05-04 11:50 51.46489 -0.45104 94 ft 121 kts 269°
2026-05-04 11:51 51.46488 -0.46713 100 ft 166 kts 269°
2026-05-04 11:51 51.46476 -0.48679 472 ft 181 kts 270°
2026-05-04 11:51 51.46434 -0.50656 1325 ft 172 kts 269°
2026-05-04 11:51 51.46280 -0.52497 2034 ft 168 kts 251°
2026-05-04 11:52 51.45562 -0.54088 2341 ft 190 kts 218°
2026-05-04 11:52 51.44289 -0.54928 2658 ft 210 kts 185°
2026-05-04 11:52 51.42809 -0.54496 2943 ft 230 kts 150°
2026-05-04 11:52 51.41544 -0.52874 3294 ft 244 kts 135°
2026-05-04 11:53 51.40332 -0.50861 3750 ft 257 kts 133°
2026-05-04 11:53 51.39089 -0.48760 4447 ft 261 kts 134°
2026-05-04 11:53 51.37826 -0.46655 5198 ft 264 kts 134°
2026-05-04 11:53 51.36559 -0.44496 5750 ft 267 kts 134°
2026-05-04 11:55 51.27608 -0.29026 8220 ft 278 kts 134°
2026-05-04 11:55 51.26297 -0.26751 9032 ft 280 kts 134°
2026-05-04 11:56 51.24982 -0.24445 9820 ft 283 kts 134°
2026-05-04 11:56 51.23650 -0.22088 10388 ft 292 kts 134°
2026-05-04 11:56 51.22249 -0.19602 10696 ft 311 kts 132°
2026-05-04 11:56 51.20994 -0.16668 10964 ft 331 kts 118°
2026-05-04 11:57 51.20258 -0.13083 11257 ft 350 kts 103°
2026-05-04 11:57 51.19888 -0.09192 11776 ft 359 kts 97°
2026-05-04 11:57 51.19728 -0.05255 12405 ft 363 kts 94°
2026-05-04 11:57 51.19663 -0.01205 13062 ft 367 kts 92°
2026-05-04 11:58 51.19627 0.02885 13694 ft 371 kts 92°
2026-05-04 11:58 51.19584 0.07024 14282 ft 375 kts 92°
2026-05-04 11:58 51.19520 0.11188 14891 ft 377 kts 93°
2026-05-04 11:58 51.19434 0.15385 15506 ft 380 kts 93°
2026-05-04 11:59 51.19332 0.19604 16108 ft 382 kts 94°
2026-05-04 11:59 51.19219 0.23844 16708 ft 385 kts 94°
2026-05-04 11:59 51.19100 0.28118 17303 ft 387 kts 94°
2026-05-04 11:59 51.18979 0.32368 17875 ft 390 kts 94°
2026-05-04 12:00 51.18854 0.36698 18427 ft 393 kts 95°
2026-05-04 12:00 51.18727 0.41050 18889 ft 397 kts 94°
2026-05-04 12:00 51.18601 0.45339 19310 ft 401 kts 95°
2026-05-04 12:00 51.18470 0.49797 19725 ft 406 kts 94°
2026-05-04 12:01 51.18336 0.54313 20129 ft 410 kts 94°
2026-05-04 12:01 51.18199 0.58867 20585 ft 413 kts 95°
2026-05-04 12:02 51.17318 0.86913 23122 ft 434 kts 95°
2026-05-04 12:03 51.17160 0.91724 23533 ft 437 kts 95°
2026-05-04 12:03 51.17110 0.93244 23648 ft 438 kts 95°
2026-05-04 12:03 51.17089 0.93862 23691 ft 438 kts 95°
2026-05-04 12:03 51.16926 0.98726 24040 ft 441 kts 95°
2026-05-04 12:04 51.16760 1.03620 24413 ft 443 kts 95°
2026-05-04 12:04 51.16594 1.08461 24788 ft 444 kts 95°
2026-05-04 12:04 51.16424 1.13388 25163 ft 446 kts 95°
2026-05-04 12:04 51.16251 1.18320 25533 ft 448 kts 95°
2026-05-04 12:05 51.16074 1.23293 25903 ft 450 kts 96°
2026-05-04 12:05 51.15895 1.28277 26268 ft 452 kts 96°
2026-05-04 12:05 51.15713 1.33273 26619 ft 454 kts 96°
2026-05-04 12:05 51.15528 1.38305 26986 ft 455 kts 96°
2026-05-04 12:06 51.15340 1.43351 27315 ft 457 kts 96°
2026-05-04 12:06 51.15150 1.48405 27753 ft 457 kts 96°
2026-05-04 12:06 51.14959 1.53394 28113 ft 459 kts 97°
2026-05-04 12:06 51.14763 1.58479 28445 ft 461 kts 97°
2026-05-04 12:07 51.14563 1.63587 28788 ft 463 kts 97°
2026-05-04 12:07 51.14361 1.68712 29130 ft 465 kts 97°
2026-05-04 12:07 51.14155 1.73857 29456 ft 467 kts 97°
2026-05-04 12:07 51.13947 1.79029 29793 ft 469 kts 97°
2026-05-04 12:08 51.13735 1.84212 30112 ft 470 kts 97°
2026-05-04 12:08 51.13520 1.89430 30394 ft 473 kts 97°
2026-05-04 12:08 51.13305 1.94592 30590 ft 475 kts 98°
2026-05-04 12:08 51.13081 1.99843 30833 ft 477 kts 98°
2026-05-04 12:09 51.12828 2.05126 31148 ft 478 kts 99°
2026-05-04 12:09 51.12554 2.10381 31519 ft 477 kts 99°
2026-05-04 12:09 51.12268 2.15635 31879 ft 476 kts 99°
2026-05-04 12:09 51.11978 2.20884 32233 ft 476 kts 99°
2026-05-04 12:10 51.11687 2.26113 32556 ft 475 kts 99°
2026-05-04 12:10 51.11394 2.31358 32880 ft 475 kts 100°
2026-05-04 12:10 51.11102 2.36585 33207 ft 475 kts 100°
2026-05-04 12:10 51.10807 2.41837 33427 ft 476 kts 100°
2026-05-04 12:11 51.10514 2.47013 33692 ft 477 kts 101°
2026-05-04 12:11 51.10217 2.52257 33999 ft 476 kts 101°
2026-05-04 12:11 51.09917 2.57510 34288 ft 476 kts 100°
2026-05-04 12:11 51.09577 2.62739 34540 ft 473 kts 104°
2026-05-04 12:12 51.08917 2.67823 34790 ft 468 kts 109°
2026-05-04 12:12 51.08104 2.72829 35039 ft 467 kts 110°
2026-05-04 12:12 51.07237 2.77807 35255 ft 467 kts 110°
2026-05-04 12:12 51.06339 2.82766 35485 ft 467 kts 111°
2026-05-04 12:13 51.05436 2.87663 35637 ft 468 kts 111°
2026-05-04 12:14 50.99002 3.22460 36994 ft 471 kts 110°
2026-05-04 12:15 50.97162 3.32353 36978 ft 470 kts 110°
2026-05-04 12:15 50.95302 3.42295 36985 ft 471 kts 110°
2026-05-04 12:16 50.93431 3.52245 36985 ft 471 kts 110°
2026-05-04 12:16 50.91554 3.62173 36985 ft 471 kts 110°
2026-05-04 12:17 50.89668 3.72036 36985 ft 471 kts 111°
2026-05-04 12:17 50.87750 3.81957 36985 ft 471 kts 111°
2026-05-04 12:18 50.85824 3.91866 36988 ft 472 kts 111°
2026-05-04 12:18 50.83889 4.01781 36989 ft 472 kts 111°
2026-05-04 12:19 50.81947 4.11686 37000 ft 471 kts 111°
2026-05-04 12:19 50.80008 4.21525 36977 ft 471 kts 111°
2026-05-04 12:20 50.78049 4.31414 36989 ft 471 kts 111°
2026-05-04 12:20 50.76084 4.41284 36993 ft 471 kts 111°
2026-05-04 12:21 50.74111 4.51142 36992 ft 471 kts 111°
2026-05-04 12:21 50.72134 4.60993 36992 ft 471 kts 111°
2026-05-04 12:22 50.70218 4.70809 36991 ft 472 kts 111°
2026-05-04 12:22 50.68302 4.80714 37003 ft 473 kts 111°
2026-05-04 12:23 50.66374 4.90620 37002 ft 473 kts 111°
2026-05-04 12:23 50.64385 5.00484 36999 ft 472 kts 112°
2026-05-04 12:24 50.62366 5.10259 36996 ft 472 kts 112°
2026-05-04 12:24 50.60324 5.20089 37002 ft 474 kts 112°
2026-05-04 12:25 50.58268 5.29973 37001 ft 475 kts 112°
2026-05-04 12:25 50.56210 5.39835 36995 ft 475 kts 112°
2026-05-04 12:26 50.54141 5.49704 36998 ft 475 kts 112°
2026-05-04 12:26 50.52084 5.59491 36985 ft 476 kts 111°
2026-05-04 12:27 50.50518 5.69670 36992 ft 481 kts 106°
2026-05-04 12:27 50.49153 5.79945 36987 ft 481 kts 105°
2026-05-04 12:28 50.47819 5.90236 36984 ft 481 kts 106°
2026-05-04 12:28 50.46482 6.00444 36985 ft 481 kts 106°
2026-05-04 12:29 50.45116 6.10709 36982 ft 482 kts 106°
2026-05-04 12:29 50.43733 6.21001 36983 ft 482 kts 106°
2026-05-04 12:30 50.42341 6.31298 36974 ft 482 kts 106°
2026-05-04 12:30 50.40941 6.41580 36980 ft 482 kts 106°
2026-05-04 12:31 50.39541 6.51789 36980 ft 482 kts 106°
2026-05-04 12:31 50.38123 6.62056 36975 ft 482 kts 106°
2026-05-04 12:32 50.35977 6.77457 36984 ft 482 kts 106°
2026-05-04 12:33 50.34546 6.87642 36996 ft 482 kts 106°
2026-05-04 12:33 50.33097 6.97887 36992 ft 482 kts 106°
2026-05-04 12:34 50.31640 7.08120 36990 ft 482 kts 107°
2026-05-04 12:34 50.30172 7.18357 36991 ft 482 kts 107°
2026-05-04 12:35 50.28698 7.28564 36992 ft 482 kts 107°
2026-05-04 12:35 50.27223 7.38714 36975 ft 482 kts 107°
2026-05-04 12:36 50.25730 7.48926 36993 ft 481 kts 107°
2026-05-04 12:36 50.24230 7.59111 36991 ft 481 kts 107°
2026-05-04 12:37 50.22718 7.69306 36992 ft 481 kts 107°
2026-05-04 12:37 50.21211 7.79412 36990 ft 481 kts 107°
2026-05-04 12:38 50.19682 7.89595 36992 ft 482 kts 107°
2026-05-04 12:38 50.18141 7.99786 36987 ft 483 kts 107°
2026-05-04 12:39 50.16592 8.09973 36992 ft 483 kts 107°
2026-05-04 12:39 50.15042 8.20100 36990 ft 483 kts 107°
2026-05-04 12:40 50.13474 8.30277 36987 ft 483 kts 107°
2026-05-04 12:40 50.11908 8.40386 36985 ft 483 kts 107°
2026-05-04 12:41 50.10308 8.50644 36992 ft 483 kts 107°
2026-05-04 12:41 50.08725 8.60730 36993 ft 483 kts 107°
2026-05-04 12:42 50.07123 8.70867 36994 ft 483 kts 108°
2026-05-04 12:42 50.05399 8.80940 36992 ft 480 kts 112°
2026-05-04 12:43 50.03271 8.90785 36992 ft 479 kts 113°
2026-05-04 12:43 50.01062 9.00555 36990 ft 479 kts 114°
2026-05-04 12:44 49.98844 9.10262 36988 ft 479 kts 114°
2026-05-04 12:44 49.96621 9.19980 36990 ft 480 kts 113°
2026-05-04 12:45 49.94381 9.29755 36989 ft 480 kts 113°
2026-05-04 12:45 49.92135 9.39519 36988 ft 480 kts 113°
2026-05-04 12:46 49.89882 9.49269 36992 ft 480 kts 114°
2026-05-04 12:46 49.87634 9.58946 37187 ft 479 kts 113°
2026-05-04 12:46 49.86506 9.63792 37445 ft 477 kts 113°
2026-05-04 12:47 49.85380 9.68610 37713 ft 476 kts 113°
2026-05-04 12:47 49.84253 9.73427 37997 ft 474 kts 113°
2026-05-04 12:47 49.83132 9.78211 38280 ft 472 kts 113°
2026-05-04 12:47 49.82011 9.82977 38563 ft 470 kts 113°
2026-05-04 12:48 49.80894 9.87723 38812 ft 468 kts 113°
2026-05-04 12:48 49.79781 9.92437 39035 ft 465 kts 113°
2026-05-04 12:48 49.78671 9.97127 39244 ft 462 kts 113°
2026-05-04 12:48 49.77583 10.01715 39460 ft 460 kts 113°
2026-05-04 12:49 49.76483 10.06345 39695 ft 456 kts 113°
2026-05-04 12:49 49.75389 10.10939 39923 ft 453 kts 113°
2026-05-04 12:49 49.74304 10.15485 40144 ft 449 kts 113°
2026-05-04 12:49 49.73225 10.19996 40370 ft 445 kts 113°
2026-05-04 12:50 49.72156 10.24458 40609 ft 441 kts 113°
2026-05-04 12:50 49.71094 10.28881 40849 ft 436 kts 113°
2026-05-04 12:50 49.70039 10.33265 40924 ft 436 kts 113°
2026-05-04 12:51 49.67930 10.41990 40972 ft 438 kts 113°
2026-05-04 12:51 49.65781 10.50843 40628 ft 446 kts 113°
2026-05-04 12:51 49.64680 10.55366 40397 ft 455 kts 113°
2026-05-04 12:52 49.63555 10.59973 40164 ft 463 kts 114°
2026-05-04 12:52 49.62409 10.64664 39933 ft 472 kts 114°
2026-05-04 12:52 49.61244 10.69426 39698 ft 476 kts 114°
2026-05-04 12:52 49.60092 10.74130 39476 ft 476 kts 114°
2026-05-04 12:53 49.58925 10.78893 39241 ft 475 kts 114°
2026-05-04 12:53 49.57753 10.83663 39031 ft 475 kts 114°
2026-05-04 12:53 49.56582 10.88417 38999 ft 474 kts 114°
2026-05-04 12:54 49.54232 10.97917 38997 ft 475 kts 114°
2026-05-04 12:54 49.51657 11.07241 38984 ft 472 kts 119°
2026-05-04 12:55 49.48771 11.16241 38992 ft 472 kts 120°
2026-05-04 12:55 49.45801 11.25244 38963 ft 472 kts 120°
2026-05-04 12:56 49.42810 11.34252 38981 ft 474 kts 120°
2026-05-04 12:56 49.39815 11.43272 38973 ft 474 kts 120°
2026-05-04 12:57 49.36840 11.52217 38975 ft 474 kts 120°
2026-05-04 12:57 49.33841 11.61203 38977 ft 473 kts 120°
2026-05-04 12:58 49.30835 11.70182 38979 ft 473 kts 120°
2026-05-04 12:58 49.27831 11.79121 38977 ft 472 kts 120°
2026-05-04 12:59 49.24819 11.88049 38971 ft 472 kts 120°
2026-05-04 12:59 49.21825 11.96895 38970 ft 472 kts 120°
2026-05-04 13:00 49.18798 12.05803 38967 ft 472 kts 120°
2026-05-04 13:00 49.15773 12.14678 38976 ft 471 kts 120°
2026-05-04 13:01 49.12742 12.23541 38971 ft 470 kts 120°
2026-05-04 13:01 49.09727 12.32327 38968 ft 470 kts 120°
2026-05-04 13:02 49.06684 12.41163 38967 ft 470 kts 121°
2026-05-04 13:02 49.03640 12.49973 38967 ft 470 kts 121°
2026-05-04 13:03 49.00584 12.58782 38965 ft 470 kts 121°
2026-05-04 13:03 48.97544 12.67518 38966 ft 470 kts 121°
2026-05-04 13:04 48.94477 12.76304 38969 ft 470 kts 121°
2026-05-04 13:04 48.91407 12.85068 38969 ft 470 kts 121°
2026-05-04 13:05 48.88325 12.93835 38966 ft 470 kts 121°
2026-05-04 13:05 48.85239 13.02586 38965 ft 470 kts 121°
2026-05-04 13:06 48.82142 13.11337 38964 ft 470 kts 121°
2026-05-04 13:06 48.79062 13.20011 38963 ft 470 kts 121°
2026-05-04 13:07 48.75954 13.28733 38969 ft 471 kts 121°
2026-05-04 13:07 48.72833 13.37462 38962 ft 470 kts 121°
2026-05-04 13:08 48.69720 13.46146 38962 ft 470 kts 121°
2026-05-04 13:08 48.66616 13.54770 38966 ft 470 kts 121°
2026-05-04 13:09 48.63174 13.63128 38962 ft 468 kts 126°
2026-05-04 13:09 48.59535 13.71288 38960 ft 468 kts 127°
2026-05-04 13:10 48.55858 13.79400 38963 ft 468 kts 127°
2026-05-04 13:10 48.52195 13.87459 38966 ft 468 kts 127°
2026-05-04 13:11 48.48514 13.95554 38951 ft 468 kts 127°
2026-05-04 13:11 48.44826 14.03648 38953 ft 469 kts 127°
2026-05-04 13:12 48.41130 14.11741 38937 ft 468 kts 127°
2026-05-04 13:12 48.37437 14.19801 38949 ft 468 kts 127°
2026-05-04 13:13 48.33763 14.27795 38946 ft 468 kts 127°
2026-05-04 13:13 48.30058 14.35831 38944 ft 468 kts 127°
2026-05-04 13:14 48.26343 14.43864 38943 ft 468 kts 127°
2026-05-04 13:14 48.22625 14.51883 38947 ft 468 kts 127°
2026-05-04 13:15 48.18929 14.59829 38948 ft 468 kts 127°
2026-05-04 13:15 48.15198 14.67828 38944 ft 468 kts 127°
2026-05-04 13:16 48.11457 14.75824 38950 ft 469 kts 127°
2026-05-04 13:16 48.07707 14.83816 38956 ft 470 kts 127°
2026-05-04 13:17 48.03939 14.91824 38957 ft 471 kts 127°
2026-05-04 13:17 48.00187 14.99774 38957 ft 471 kts 127°
2026-05-04 13:18 47.96404 15.07763 38960 ft 472 kts 127°
2026-05-04 13:18 47.92601 15.15776 38961 ft 473 kts 127°
2026-05-04 13:19 47.88818 15.23723 38966 ft 473 kts 127°
2026-05-04 13:19 47.85003 15.31711 38970 ft 473 kts 127°
2026-05-04 13:20 47.81183 15.39687 38977 ft 474 kts 127°
2026-05-04 13:20 47.77340 15.47688 38987 ft 476 kts 127°
2026-05-04 13:21 47.73485 15.55690 38989 ft 476 kts 127°
2026-05-04 13:21 47.69657 15.63617 38991 ft 476 kts 127°
2026-05-04 13:22 47.65792 15.71593 38981 ft 476 kts 127°
2026-05-04 13:22 47.61917 15.79564 38998 ft 477 kts 127°
2026-05-04 13:23 47.58033 15.87536 39000 ft 477 kts 127°
2026-05-04 13:23 47.54166 15.95447 38993 ft 477 kts 127°
2026-05-04 13:24 47.50262 16.03410 39002 ft 478 kts 127°
2026-05-04 13:24 47.46354 16.11359 39004 ft 478 kts 127°
2026-05-04 13:25 47.40501 16.23224 39006 ft 479 kts 127°
2026-05-04 13:25 47.36576 16.31150 39007 ft 478 kts 127°
2026-05-04 13:26 47.32647 16.39061 39008 ft 479 kts 127°
2026-05-04 13:26 47.28704 16.46969 39010 ft 478 kts 128°
2026-05-04 13:27 47.24613 16.54675 39011 ft 478 kts 130°
2026-05-04 13:27 47.20443 16.62214 39011 ft 478 kts 130°
2026-05-04 13:28 47.16254 16.69773 39015 ft 476 kts 130°
2026-05-04 13:28 47.12083 16.77325 39018 ft 477 kts 129°
2026-05-04 13:29 47.07902 16.84899 39023 ft 477 kts 129°
2026-05-04 13:29 47.03752 16.92399 39023 ft 477 kts 129°
2026-05-04 13:30 46.99567 16.99939 39033 ft 477 kts 129°
2026-05-04 13:30 46.95371 17.07475 39038 ft 477 kts 129°
2026-05-04 13:31 46.91171 17.14999 39043 ft 477 kts 129°
2026-05-04 13:31 46.86969 17.22508 39047 ft 477 kts 129°
2026-05-04 13:32 46.82790 17.29955 39048 ft 477 kts 129°
2026-05-04 13:32 46.78581 17.37434 39052 ft 477 kts 129°
2026-05-04 13:33 46.74374 17.44890 39048 ft 475 kts 129°
2026-05-04 13:33 46.70169 17.52319 39053 ft 475 kts 129°
2026-05-04 13:34 46.65986 17.59692 39052 ft 475 kts 129°
2026-05-04 13:34 46.61768 17.67108 39063 ft 475 kts 129°
2026-05-04 13:35 46.56310 17.77122 39058 ft 474 kts 127°
2026-05-04 13:36 46.52283 17.84710 39062 ft 474 kts 127°
2026-05-04 13:36 46.47588 17.93499 39067 ft 474 kts 127°
2026-05-04 13:37 46.44192 17.99814 39069 ft 474 kts 127°
2026-05-04 13:37 46.40158 18.07285 39067 ft 473 kts 128°
2026-05-04 13:38 46.36098 18.14782 39066 ft 473 kts 128°
2026-05-04 13:38 46.31369 18.23492 39072 ft 473 kts 128°
2026-05-04 13:39 46.27982 18.29713 39076 ft 474 kts 128°
2026-05-04 13:39 46.23904 18.37187 39073 ft 474 kts 128°
2026-05-04 13:40 46.19813 18.44664 39072 ft 475 kts 128°
2026-05-04 13:40 46.15719 18.52127 39074 ft 474 kts 128°
2026-05-04 13:41 46.11647 18.59529 39079 ft 474 kts 128°
2026-05-04 13:41 46.07546 18.66964 39074 ft 474 kts 128°
2026-05-04 13:42 46.01391 18.78086 39074 ft 474 kts 128°
2026-05-04 13:42 45.97283 18.85485 39080 ft 474 kts 128°
2026-05-04 13:43 45.93187 18.92821 39079 ft 474 kts 129°
2026-05-04 13:43 45.88829 18.99944 39080 ft 475 kts 131°
2026-05-04 13:44 45.84336 19.06917 39081 ft 476 kts 132°
2026-05-04 13:44 45.79845 19.13881 39082 ft 476 kts 131°
2026-05-04 13:45 45.75376 19.20857 39093 ft 476 kts 131°
2026-05-04 13:45 45.70935 19.27801 39087 ft 476 kts 131°
2026-05-04 13:46 45.66458 19.34784 39080 ft 477 kts 131°
2026-05-04 13:46 45.61968 19.41769 39089 ft 477 kts 131°
2026-05-04 13:47 45.57481 19.48730 39088 ft 477 kts 131°
2026-05-04 13:47 45.53017 19.55637 39090 ft 477 kts 131°
2026-05-04 13:48 45.48515 19.62586 39091 ft 477 kts 131°
2026-05-04 13:48 45.44012 19.69518 39089 ft 477 kts 131°
2026-05-04 13:49 45.39502 19.76444 39109 ft 477 kts 131°
2026-05-04 13:49 45.34992 19.83352 39097 ft 476 kts 131°
2026-05-04 13:50 45.30516 19.90189 39095 ft 476 kts 131°
2026-05-04 13:50 45.26008 19.97060 39096 ft 476 kts 131°
2026-05-04 13:51 45.21493 20.03925 39104 ft 476 kts 131°